Weather in Talmenka

Russia / Novosibirsk Oblast     54˚42′33″N   83˚16′43″E
temp.,
°C
wind,
m/s
gust,
m/s
humid.,
%
clouds,
%
prec.,
mm/h
press.,
hPa
HPBL,
m
30 november, mon
mon3001:00−11˚sse229646 0.0 104432
04:00−10˚ssw229654 0.0 104543
07:00−9˚sw229672 0.1 104642
10:00−7˚wsw249596 0.0 1047122
13:00−6˚w359397 0.1 1048400
16:00−7˚wnw3593100 0.1 1048336
19:00−10˚wnw339699 0.1 105044
22:00−10˚wnw3597100 0.1 1050160
1 december, tue
tue101:00−13˚nw3495100 0.1 1051122
04:00−14˚nw239590 0.0 105144
07:00−14˚wnw239596 0.0 105165
10:00−13˚wnw2495100 0.0 1051101
13:00−11˚wnw359299 0.0 1051322
16:00−12˚w349498 0.0 1050122
19:00−13˚wnw239598 0.0 105047
22:00−14˚nw239372 0.0 105043
2 december, wed
wed201:00−15˚wnw129642 0.0 105035
04:00−16˚wnw129988 0.0 105034
07:00−15˚wnw1110094 0.1 104934
10:00−15˚wnw0198100 0.0 104934
13:00−11˚wsw1293100 0.1 1048211
16:00−11˚w1296100 0.1 104742
19:00−14˚sw0197100 0.1 104734
22:00−15˚s1297100 0.0 104637
3 december, thu
thu301:00−14˚ssw1298100 0.1 104535
04:00−14˚sw1197100 0.1 104433
07:00−14˚ssw1197100 0.1 104437
10:00−14˚ssw1197100 0.0 104334
13:00−11˚sw1294100 0.1 1042154
16:00−11˚w1295100 0.1 104243
19:00−15˚nnw119597 0.1 104133
22:00−16˚nnw009414 0.0 104032
4 december, fri
fri401:00−16˚nnw119613 0.0 104033
04:00−16˚nnw119732 0.0 103933
07:00−17˚nnw119623 0.0 103833
10:00−18˚nw01978 0.0 103733
13:00−13˚nnw129042 0.0 1037123
16:00−13˚wnw2391100 0.0 103695
19:00−13˚wnw2391100 0.0 103695
22:00−13˚nnw2394100 0.0 1036144